Weather History for PATA - August, 2013

Change the Weather History Date:

Saturday, August 17, 2013

  Actual Average Record
Temperature  
Mean Temperature 58 °F -  
Max Temperature 70 °F 65 °F 80 °F (2004)
Min Temperature 46 °F 45 °F 27 °F (1952)
Degree Days  
Heating Degree Days 8    
Growing Degree Days 8 (Base 50)    
Moisture  
Dew Point 51 °F    
Average Humidity 74    
Maximum Humidity 93    
Minimum Humidity 54    
Precipitation  
Precipitation 0.00 in - - ()
Sea Level Pressure  
Sea Level Pressure 29.62 in    
Wind  
Wind Speed 4 mph (East)    
Max Wind Speed 12 mph    
Max Gust Speed -    
Visibility 10 miles    
Events      
Averages and records for this station are not official NWS values.
T = Trace of Precipitation, MM = Missing Value Source: NWS Daily Summary

Daily Weather History Graph

Daily Weather History Graph

Search for Another Location

Airport or City:

Trip Planner

Search our weather history database for the weather conditions in past years. The results will help you decide how hot, cold, wet, or windy it might be!

Date:

Astronomy

Aug. 17, 2013 Rise Set
Actual Time 6:00 AM AKDT 10:21 PM AKDT
Civil Twilight 4:52 AM AKDT 11:28 PM AKDT
Nautical Twilight 2:44 AM AKDT 1:39 AM AKDT
Astronomical Twilight Sun does not rise Sun does not rise
Moon 8:27 PM AKDT (8/17) 1:20 AM AKDT (8/17)
Length of Visible Light 18h 35m
Length of Day
16h 21m
Waxing Gibbous, 85% of the Moon is Illuminated
Aug 17
Waxing Gibbous
Aug 20
Full
Aug 28
Last Quarter
Sep 5
New
Sep 12
First Quarter

Hourly Weather History & Observations

Time (AKDT) Temp. Dew Point Humidity Pressure Visibility Wind Dir Wind Speed Gust Speed Precip Events Conditions
12:52 AM 54.0 °F 50.0 °F 86% 29.65 in 10.0 mi NNE 5.8 mph - N/A   Overcast
1:52 AM 55.9 °F 50.0 °F 80% 29.65 in 10.0 mi Calm Calm - N/A   Overcast
2:52 AM 52.0 °F 48.9 °F 89% 29.66 in 10.0 mi North 5.8 mph - N/A   Scattered Clouds
3:52 AM 48.0 °F 46.0 °F 93% 29.66 in 10.0 mi North 4.6 mph - N/A   Clear
4:52 AM 50.0 °F 46.0 °F 86% 29.65 in 10.0 mi North 3.5 mph - N/A   Clear
5:52 AM 46.9 °F 45.0 °F 93% 29.65 in 10.0 mi Calm Calm - N/A   Clear
6:52 AM 48.0 °F 45.0 °F 89% 29.65 in 10.0 mi NNW 4.6 mph - N/A   Mostly Cloudy
7:52 AM 52.0 °F 48.0 °F 86% 29.65 in 10.0 mi NW 3.5 mph - N/A   Mostly Cloudy
8:52 AM 57.9 °F 51.1 °F 78% 29.65 in 10.0 mi Calm Calm - N/A   Mostly Cloudy
9:52 AM 59.0 °F 51.1 °F 75% 29.65 in 9.0 mi Variable 3.5 mph - N/A   Mostly Cloudy
10:52 AM 61.0 °F 51.1 °F 70% 29.64 in 10.0 mi Calm Calm - N/A   Mostly Cloudy
11:52 AM 64.9 °F 54.0 °F 68% 29.64 in 10.0 mi SE 6.9 mph - N/A   Mostly Cloudy
12:52 PM 66.0 °F 54.0 °F 65% 29.63 in 10.0 mi SE 6.9 mph - N/A   Mostly Cloudy
1:52 PM 64.0 °F 53.1 °F 67% 29.62 in 10.0 mi ESE 5.8 mph - N/A   Mostly Cloudy
2:52 PM 68.0 °F 52.0 °F 56% 29.61 in 10.0 mi ESE 9.2 mph - N/A   Mostly Cloudy
3:52 PM 69.1 °F 52.0 °F 54% 29.60 in 10.0 mi SE 11.5 mph - N/A   Mostly Cloudy
4:52 PM 69.1 °F 52.0 °F 54% 29.59 in 10.0 mi ESE 8.1 mph - N/A   Mostly Cloudy
5:52 PM 66.9 °F 52.0 °F 59% 29.58 in 10.0 mi SE 8.1 mph - N/A   Mostly Cloudy
6:52 PM 66.9 °F 53.1 °F 61% 29.57 in 10.0 mi SE 8.1 mph - N/A   Mostly Cloudy
7:52 PM 64.0 °F 53.1 °F 67% 29.57 in 10.0 mi ESE 3.5 mph - N/A   Mostly Cloudy
8:52 PM 64.0 °F 53.1 °F 67% 29.57 in 10.0 mi ENE 3.5 mph - N/A   Scattered Clouds
9:52 PM 62.1 °F 53.1 °F 72% 29.57 in 10.0 mi Calm Calm - N/A   Overcast
10:52 PM 57.9 °F 53.1 °F 84% 29.57 in 10.0 mi Calm Calm - N/A   Overcast
11:52 PM 55.9 °F 52.0 °F 87% 29.57 in 10.0 mi Calm Calm - N/A   Overcast